Regional Weather Roundup
Issued by NWS State College, PA

Home | Current Version | Previous Version | Graphics & Text | Print | Product List | Glossary On
Versions: 1 2 3 4 5 6 7 8 9 10 11 12 13 14 15 16 17 18 19 20 21 22 23 24 25 26 27 28 29 30 31 32 33 34 35 36 37 38 39 40 41 42 43 44 45 46 47 48 49 50
000
ASUS41 KCTP 220810
RWRCTP

REGIONAL WEATHER ROUNDUP
NATIONAL WEATHER SERVICE STATE COLLEGE PA
400 AM EDT SUN OCT 22 2017

Note: "fair" indicates few or no clouds below 12,000 feet with no
significant weather and/or obstructions to visibility.

* = STATION THAT DOES NOT REPORT PRECIPITATION /E.G. RAIN...SNOW...ETC/
    THUNDER OR FOG.

PAZ002>004-007>009-013>016-020>023-029>032-220900-
WESTERN PENNSYLVANIA

CITY           SKY/WX    TMP DP  RH WIND       PRES   REMARKS
ERIE           PTCLDY    58  48  69 S9        30.25R
MEADVILLE      PTCLDY    54  49  83 CALM      30.27S
FRANKLIN*      PTCLDY    51  46  83 SE8       30.28S
NEW CASTLE     FAIR      48  48 100 CALM      30.27R FOG
BEAVER COUNTY  NOT AVBL
BUTLER*        CLEAR     48  47  96 NE3       30.28R
PITTSBURGH INT PTCLDY    52  50  93 CALM      30.26R
PITTSBURGH     CLEAR     57  50  77 SE5       30.27R
INDIANA*       CLEAR     52  48  87 CALM      30.31S
LATROBE        CLEAR     50  48  93 CALM      30.28R
WASHINGTON CO* CLEAR     48  46  93 CALM      30.30R
$$

PAZ004>006-010>012-017>019-024>028-033>037-041-042-045-046-049>053-220900-
CENTRAL PENNSYLVANIA

CITY           SKY/WX    TMP DP  RH WIND       PRES   REMARKS
BRADFORD       CLOUDY    47  41  80 CALM      30.31S
DUBOIS         CLEAR     54  41  61 SE6       30.29S
CLEARFIELD     CLEAR     45  43  93 N8        30.32S
JOHNSTOWN      CLEAR     56  47  71 S7        30.31S
ALTOONA        CLEAR     55  43  63 CALM      30.33S
STATE COLLEGE  CLEAR     47  43  86 CALM      30.33S
WILLIAMSPORT   CLEAR     45  43  93 CALM      30.35R
SELINSGROVE    CLEAR     42  42 100 NW3       30.36S
FT INDIANTOWN  CLEAR     44  44 100 CALM      30.35S
CAPITAL CITY   CLOUDY    49  45  86 CALM      30.34F
HARRISBURG     PTCLDY    48  47  96 E5        30.34S
YORK           NOT AVBL
$$

PAZ038>040-043-044-047-048-054-055-060>062-067>071-220900-
EASTERN PENNSYLVANIA

CITY           SKY/WX    TMP DP  RH WIND       PRES   REMARKS
SCRANTON       CLEAR     48  42  80 CALM      30.36S
MOUNT POCONO   CLOUDY    41  39  93 CALM      30.37F
ALLENTOWN      CLEAR     45  42  89 CALM      30.36F
QUAKERTOWN*    SUNNY     41  41 100 CALM      30.37F
READING        CLEAR     46  46 100 CALM      30.35S
LANCASTER      CLEAR     47  47 100 E5        30.35S FOG
COATESVILLE    SUNNY     50  45  81 CALM      30.37S
POTTSTOWN      CLEAR     44  44 100 CALM      30.37F
BLUE BELL      CLEAR     41  41 100 CALM      30.37F
DOYLESTOWN     CLEAR     47  44  90 CALM      30.35S
WILLOW GROVE   NOT AVBL
NORTH PHILA    CLEAR     50  46  86 CALM      30.38R
PHILADELPHIA   PTCLDY    53  47  79 CALM      30.36S
$$




USA.gov is the U.S. government's official web portal to all federal, state and local government web resources and services.